TimeCDT,TemperatureF,Dew PointF,Humidity,Sea Level PressureIn,VisibilityMPH,Wind Direction,Wind SpeedMPH,Gust SpeedMPH,PrecipitationIn,Events,Conditions,WindDirDegrees,DateUTC
12:53 AM,33.1,27.0,78,30.01,10.0,WNW,5.8,-,N/A,,Overcast,300,2012-10-25 05:53:00
1:53 AM,32.0,27.0,82,30.00,10.0,NW,5.8,-,N/A,,Mostly Cloudy,310,2012-10-25 06:53:00
2:53 AM,32.0,28.0,85,29.99,10.0,WNW,5.8,-,N/A,,Overcast,290,2012-10-25 07:53:00
3:53 AM,32.0,28.0,85,29.97,10.0,West,4.6,-,N/A,,Overcast,280,2012-10-25 08:53:00
4:53 AM,32.0,28.0,85,29.99,10.0,West,4.6,-,N/A,,Mostly Cloudy,280,2012-10-25 09:53:00
5:53 AM,32.0,28.0,85,30.01,10.0,West,4.6,-,N/A,,Mostly Cloudy,280,2012-10-25 10:53:00
6:53 AM,33.8,26.6,75,29.96,10.0,WNW,9.2,-,N/A,,Mostly Cloudy,300,2012-10-25 11:53:00
7:53 AM,33.1,27.0,78,29.99,10.0,WNW,6.9,-,N/A,,Overcast,290,2012-10-25 12:53:00
9:53 AM,35.1,27.0,72,29.97,10.0,NW,13.8,-,N/A,,Overcast,310,2012-10-25 14:53:00
10:53 AM,36.0,28.0,73,29.98,10.0,WNW,13.8,-,N/A,,Overcast,300,2012-10-25 15:53:00
11:53 AM,39.0,27.0,62,29.97,10.0,NW,18.4,25.3,N/A,,Overcast,310,2012-10-25 16:53:00
12:53 PM,39.9,27.0,60,29.96,10.0,NW,23.0,32.2,N/A,,Overcast,310,2012-10-25 17:53:00
1:53 PM,39.0,25.0,57,29.96,10.0,NW,19.6,34.5,N/A,,Overcast,310,2012-10-25 18:53:00
2:53 PM,39.0,26.1,60,29.96,10.0,NW,24.2,31.1,N/A,,Overcast,310,2012-10-25 19:53:00
3:53 PM,39.0,27.0,62,29.97,10.0,WNW,21.9,27.6,N/A,,Overcast,300,2012-10-25 20:53:00
4:53 PM,39.0,26.1,60,29.99,10.0,WNW,18.4,-,N/A,,Overcast,300,2012-10-25 21:53:00
5:53 PM,37.9,27.0,65,30.01,10.0,WNW,15.0,29.9,N/A,,Overcast,290,2012-10-25 22:53:00
6:53 PM,37.0,27.0,67,30.03,10.0,West,16.1,23.0,N/A,,Overcast,280,2012-10-25 23:53:00
7:53 PM,35.6,28.4,75,30.01,10.0,West,16.1,-,N/A,,Mostly Cloudy,280,2012-10-26 00:53:00
8:53 PM,35.1,28.9,78,30.05,10.0,West,16.1,-,N/A,,Overcast,280,2012-10-26 01:53:00
9:53 PM,35.1,28.0,76,30.07,10.0,WNW,13.8,-,N/A,,Overcast,290,2012-10-26 02:53:00
10:53 PM,34.0,27.0,75,30.09,10.0,WNW,16.1,-,N/A,,Scattered Clouds,290,2012-10-26 03:53:00
11:53 PM,34.0,26.1,73,30.10,10.0,WNW,17.3,26.5,N/A,,Scattered Clouds,300,2012-10-26 04:53:00